Location: Dötzum
(52.0808°N, 9.8063°E)
Time: 05:33:52
(UTC+00:00)

Cosmos 1544 Rocket - Pass Details

Date: 27 May 2022
Orbit: 603 x 631 km, 82.5° (Epoch: 26 June)

Event Time Altitude Azimuth Distance (km) Brightness Sun altitude
Rises 01:19:26 0° 345° (NNW) 2,922 7.8 -12.0°
Reaches altitude 10° 01:21:44 10° 341° (NNW) 2,006 6.8 -11.8°
Maximum altitude 01:26:02 52° 266° (W) 772 3.8 -11.5°
Enters shadow 01:29:34 15° 192° (SSW) 1,695 5.2 -11.2°
